Regional Weather Roundup
Issued by NWS Grand Forks, ND

Home | Current Version | Previous Version | Graphics & Text | Print | Product List | Glossary On
Versions: 1 2 3 4 5 6 7 8 9 10 11 12 13 14 15 16 17 18 19 20 21 22 23 24 25 26 27 28 29 30 31 32 33 34 35 36 37 38 39 40 41 42 43 44 45 46 47 48 49 50
000
ASUS43 KFGF 251210
RWRFGF
PRAIRIE TO PINES  WEATHER ROUNDUP
NATIONAL WEATHER SERVICE EASTERN NORTH DAKOTA/GRAND FORKS ND
700 AM CDT MON JUL 25 2016

 **SATELLITE DATA USED TO AUGMENT SKY COVER AT AUTOMATED STATIONS**
 *****  WEATHER ACROSS EASTERN NORTH DAKOTA  *****

CITY           SKY/WX    TMP DP  RH WIND       PRES   REMARKS
GRAND FORKS    PTCLDY    62  59  90 W3        30.01R
6HR MIN TEMP:  58; 6HR MAX TEMP:  63;

GRAND FRKS AFB CLEAR     63  60  90 VRB1      30.01R
GRAND FRKS NWS   N/A     59 N/A N/A W3          N/A
DEVILS LAKE    CLEAR     60  59  96 CALM      30.03S
6HR MIN TEMP:  58; 6HR MAX TEMP:  65;

FARGO          CLEAR     62  57  83 SW6       30.03R
WAHPETON ARPT  SUNNY     59  55  88 CALM      30.05R
$$

 ***** WEATHER ACROSS CENTRAL AND WESTERN NORTH DAKOTA  *****

CITY           SKY/WX    TMP DP  RH WIND       PRES   REMARKS
BISMARCK       CLEAR     60  58  92 NE6       30.01F
6HR MIN TEMP:  59; 6HR MAX TEMP:  65;

MINOT          CLEAR     62  58  86 CALM      29.98F
6HR MIN TEMP:  59; 6HR MAX TEMP:  67;

JAMESTOWN      CLEAR     60  58  92 S3        30.04R
6HR MIN TEMP:  58; 6HR MAX TEMP:  62;

MINOT AFB      CLEAR     58  56  93 SE5       29.98S
GARRISON         N/A     60  59  96 E6        29.99F
WILLISTON      CLEAR     61  56  83 N5        29.96F
6HR MIN TEMP:  58; 6HR MAX TEMP:  69;

DICKINSON      CLEAR     56  51  84 S8        29.99S
6HR MIN TEMP:  56; 6HR MAX TEMP:  62;

HETTINGER      CLEAR     60  50  69 CALM      30.03S
6HR MIN TEMP:  58; 6HR MAX TEMP:  67;

$$

 *****  OTHER AIRPORT OBSERVATIONS IN OUR AREA  *****

CITY           SKY/WX    TMP DP  RH WIND       PRES   REMARKS
WALHALLA       NOT AVBL
GRAFTON AIRPOR FAIR      63  61  94 W8        30.02R
VALLEY CITY AR   N/A     57  57 100 S6        30.07R
CANDO          NOT AVBL
CAVALIER APRT  FAIR      61  57  88 W7        30.00R
GWINNER        FAIR      61  59  94 W5        30.06R
SHEYENNE NWR     N/A     57  56  96 CALM      29.95S
ROLLA          FAIR      57  57 100 CALM      30.04S
 ***** THE ABOVE OBSERVATIONS ARE NON NWS ARE NOT QUALITY
       CONTROLLED AND MAY MIS-REPORT RAIN FOR SNOW...
$$

  *****  WEATHER ACROSS NORTHERN MINNESOTA  *****

CITY           SKY/WX    TMP DP  RH WIND       PRES   REMARKS
FLAG ISLAND    SUNNY     64  59  82 W9        29.96R
WARROAD        NOT AVBL
ROSEAU         CLEAR     63  57  82 SW5       29.99S
HALLOCK        CLEAR     59  57  94 CALM      29.99S
THF RVR FALLS  CLEAR     59  58  96 SW3       30.03R
6HR MIN TEMP:  58; 6HR MAX TEMP:  63;

BAUDETTE       SUNNY     61  59  93 W3        29.99R
6HR MIN TEMP:  56; 6HR MAX TEMP:  62;

WASKISH        SUNNY     68  63  83 W5        30.01R
CROOKSTON      CLEAR     61  57  88 CALM      30.02S
STEPHEN NDAWN    N/A    N/A N/A N/A SW2         N/A
GREENBUSH NDAW   N/A     61  61 100 SW5         N/A
$$
  *****  WEATHER ACROSS CENTRAL AND WEST MINNESOTA  *****

CITY           SKY/WX    TMP DP  RH WIND       PRES   REMARKS
FOSSTON        CLEAR     57  55  94 S3        30.05R
BEMIDJI        CLEAR     61  59  94 W5        30.03R
PARK RAPIDS    CLEAR     61  58  90 CALM      30.04R
6HR MIN TEMP:  58; 6HR MAX TEMP:  62;

ELBOW LAKE     FAIR      60  59  96 CALM      30.06R
WADENA         CLEAR     61  59  94 W6        30.04S
DETROIT LAKES  CLEAR     64  57  77 CALM      30.06R
MOORHEAD       CLEAR     61  57  88 CALM      30.04R
FERGUS FALLS   CLEAR     61  61 100 SW3       30.07R
MORRIS MN      CLEAR     61  61 100 CALM      30.06R
STAPLES        CLEAR     61  59  94 CALM      30.04S
$$
  *****  WEATHER ELSEWHERE ACROSS MINNESOTA  *****

CITY           SKY/WX    TMP DP  RH WIND       PRES   REMARKS
DULUTH         SUNNY     64  61  90 NW7       29.99R
6HR MIN TEMP:  61; 6HR MAX TEMP:  66;

INTRNTL FALLS  SUNNY     61  59  93 W3        29.98R
6HR MIN TEMP:  57; 6HR MAX TEMP:  61;

ELY            SUNNY     61  57  88 SW3       29.99R
CLOQUET        SUNNY     63  59  88 W7        30.00S
WHEATON        NOT AVBL
BRAINERD       SUNNY     63  60  90 CALM      30.04R
6HR MIN TEMP:  60; 6HR MAX TEMP:  71;

HIBBING        SUNNY     59  57  93 SW3       30.00R
6HR MIN TEMP:  52; 6HR MAX TEMP:  65;

ALEXANDRIA     CLEAR     63  60  90 W3        30.08R
6HR MIN TEMP:  60; 6HR MAX TEMP:  65;

SAINT CLOUD    CLEAR     62  61  96 CALM      30.05R
6HR MIN TEMP:  58; 6HR MAX TEMP:  66;

MINNEAPOLIS    SUNNY     68  62  81 SW5       30.04R
6HR MIN TEMP:  67; 6HR MAX TEMP:  73;

$$

  *****  WEATHER ACROSS SOUTH DAKOTA  *****

CITY           SKY/WX    TMP DP  RH WIND       PRES   REMARKS
SIOUX FALLS    PTCLDY    64  58  80 SW3       30.12R
6HR MIN TEMP:  59; 6HR MAX TEMP:  68;

BROOKINGS      CLEAR     62  59  90 CALM      30.11R
WATERTOWN      CLEAR     61  58  90 CALM      30.09R
6HR MIN TEMP:  59; 6HR MAX TEMP:  67;

HURON          CLEAR     62  58  86 S5        30.08R
6HR MIN TEMP:  60; 6HR MAX TEMP:  68;

SISSETON         N/A     61  59  93 CALM      30.05R
ABERDEEN       PTCLDY    59  55  87 CALM      30.06R
6HR MIN TEMP:  56; 6HR MAX TEMP:  61;

MITCHELL       CLEAR     61  59  93 SE3       30.11R
PIERRE         CLEAR     65  55  70 E3        30.06R
6HR MIN TEMP:  62; 6HR MAX TEMP:  71;

MOBRIDGE       CLEAR     68  57  68 SE10      30.02R
RAPID CITY     CLEAR     65  56  72 S9        30.08S
6HR MIN TEMP:  63; 6HR MAX TEMP:  71;

$$

  *****  SOME WEATHER IN NEARBY STATES *****

CITY           SKY/WX    TMP DP  RH WIND       PRES   REMARKS
GLASGOW MT     CLEAR     59  52  77 E8        29.97S
6HR MIN TEMP:  57; 6HR MAX TEMP:  65;

GREAT FALLS MT CLEAR     50  42  74 S3        30.08R
6HR MIN TEMP:  50; 6HR MAX TEMP:  64;

CHEYENNE WY    CLEAR     54  53  97 SW8       30.24S
6HR MIN TEMP:  54; 6HR MAX TEMP:  61;

SCOTTSBLUFF NE CLEAR     58  54  86 E9        30.17R
6HR MIN TEMP:  57; 6HR MAX TEMP:  65;

OMAHA NE       CLOUDY    66  62  87 N7        30.10R
6HR MIN TEMP:  65; 6HR MAX TEMP:  71;

DES MOINES IA  MOCLDY    72  64  76 N6        30.08R
6HR MIN TEMP:  70; 6HR MAX TEMP:  74;

DAVENPORT IA   SUNNY     68  66  93 NW3       30.04R
6HR MIN TEMP:  67; 6HR MAX TEMP:  72;

CHICAGO IL     MOSUNNY   74  69  85 NW8       29.97R
6HR MIN TEMP:  72; 6HR MAX TEMP:  75;

EAU CLAIRE WI  SUNNY     65  62  90 SW5       30.01R
6HR MIN TEMP:  63; 6HR MAX TEMP:  66;

LA CROSSE WI   SUNNY     70  65  84 CALM      30.02R
6HR MIN TEMP:  67; 6HR MAX TEMP:  72;

$$

  *****  SOME NATIONAL WEATHER *****

CITY           SKY/WX    TMP DP  RH WIND       PRES   REMARKS
LA GUARDIA NY  CLOUDY    81  70  69 S6        29.93F
6HR MIN TEMP:  79; 6HR MAX TEMP:  84; 6HR PCP:  0.02;

RALEIGH NC     MOSUNNY   80  75  84 SW12      30.06R
6HR MIN TEMP:  77; 6HR MAX TEMP:  81;

ATLANTA GA     MOSUNNY   80  71  74 W3        30.10R
6HR MIN TEMP:  76; 6HR MAX TEMP:  80;

NEW ORLEANS LA PTCLDY    81  76  84 CALM      29.97R
6HR MIN TEMP:  80; 6HR MAX TEMP:  82;

OKLAHOMA CITY  CLOUDY    81  69  67 N10       30.03R
6HR MIN TEMP:  76; 6HR MAX TEMP:  82;

ALBUQUERQUE NM MOCLDY    71  56  58 E3        30.25R
6HR MIN TEMP:  67; 6HR MAX TEMP:  76;

SALT LAKE CITY PTCLDY    77  38  24 SE8       30.05R
6HR MIN TEMP:  72; 6HR MAX TEMP:  80;

LOS ANGELES CA PTCLDY    70  65  84 S5        29.92R
6HR MIN TEMP:  69; 6HR MC1F1C2F2C3F3C4F4C5F5C6F6C7F7C8F8C9F9CaFaCbFbCcFcCd!



USA.gov is the U.S. government's official web portal to all federal, state and local government web resources and services.